Date,TemperatureHighF,TemperatureAvgF,TemperatureLowF,DewpointHighF,DewpointAvgF,DewpointLowF,HumidityHigh,HumidityAvg,HumidityLow,PressureMaxIn,PressureMinIn,WindSpeedMaxMPH,WindSpeedAvgMPH,GustSpeedMaxMPH,PrecipitationSumIn
2013-11-1,62.0,54.5,50.3,61.0,49.3,45.0,97,83,63,29.69,29.28,21,6,31,0.41
2013-11-2,51.0,47.7,42.2,46.0,42.1,39.0,95,81,66,30.03,29.68,13,3,16,0.01
2013-11-3,52.2,43.0,37.4,41.0,37.0,31.0,97,81,47,30.43,30.04,5,1,9,0.00
2013-11-4,52.8,42.4,32.3,39.0,33.4,29.0,87,72,49,30.47,30.36,8,2,13,0.00
2013-11-5,59.9,51.5,44.1,44.0,40.1,37.0,83,66,53,30.44,30.25,5,1,9,0.00
2013-11-6,68.3,55.5,42.0,58.0,46.9,35.0,96,75,50,30.25,29.92,13,4,18,0.45
2013-11-7,50.6,41.8,32.8,49.0,35.8,29.0,96,80,54,30.17,29.95,11,3,18,0.14
2013-11-8,45.0,37.0,30.9,35.0,31.6,28.0,94,82,58,30.34,30.15,8,2,16,0.00
2013-11-9,58.2,46.3,32.6,37.0,32.6,29.0,91,62,41,30.27,29.99,30,6,36,0.00
2013-11-10,48.1,41.1,29.9,39.0,32.5,28.0,94,73,56,30.32,30.02,14,4,25,0.00
2013-11-11,48.2,40.1,28.4,40.0,33.1,27.0,96,78,57,30.30,30.06,13,4,18,0.04
2013-11-12,33.0,28.3,24.2,32.0,24.4,21.0,95,85,77,30.58,30.21,9,3,15,0.08
2013-11-13,36.8,29.1,20.5,25.0,20.9,19.0,93,73,50,30.61,30.40,12,3,19,0.00
2013-11-14,50.6,39.3,30.1,27.0,22.1,19.0,71,52,31,30.39,30.16,16,6,20,0.00
2013-11-15,52.4,42.5,30.4,39.0,28.5,21.0,83,59,39,30.19,30.12,12,2,16,0.00
2013-11-16,58.2,51.6,42.5,53.0,47.5,39.0,91,86,78,30.17,29.93,10,2,13,0.00
2013-11-17,61.5,57.5,51.2,59.0,54.3,41.0,97,90,60,29.93,29.46,23,6,32,0.75
2013-11-18,50.9,44.4,34.5,41.0,36.0,28.0,86,73,54,30.13,29.67,18,7,28,0.03
2013-11-19,40.9,34.7,28.3,29.0,26.8,25.0,89,73,58,30.39,30.13,9,2,13,0.00
2013-11-20,46.7,35.4,27.6,31.0,27.2,23.0,84,73,51,30.41,30.29,11,3,14,0.00
2013-11-21,54.4,45.7,37.1,45.0,37.5,28.0,92,74,59,30.38,30.21,6,1,10,0.16
2013-11-22,52.1,46.8,35.7,52.0,45.1,31.0,98,93,81,30.32,30.12,11,3,19,0.29
2013-11-23,36.2,29.1,19.9,31.0,23.5,11.0,94,80,61,30.49,30.27,14,3,23,0.00
2013-11-24,25.7,19.2,14.8,14.0,10.9,7.0,88,71,49,30.65,30.49,12,2,15,0.00
2013-11-25,35.5,26.0,15.0,29.0,17.1,13.0,90,71,45,30.56,30.23,10,2,22,0.00
2013-11-26,33.2,31.4,29.5,32.0,30.3,28.0,97,95,90,30.23,29.87,8,1,9,0.04
2013-11-27,30.2,26.5,22.9,29.0,20.9,14.0,95,80,60,30.23,29.86,10,3,16,0.04
2013-11-28,29.6,25.8,20.9,24.0,20.2,17.0,90,80,65,30.45,30.24,7,2,11,0.00
2013-11-29,36.8,27.8,18.3,23.0,21.3,17.0,93,78,57,30.64,30.45,4,1,8,0.07
2013-11-30,43.1,30.9,21.5,30.0,25.4,19.0,92,81,59,30.59,30.21,7,1,9,0.02